DW2217 Weather Reports


Display with metric or nautical units.
time (UTC)temp
F
wind
direction
speed
MPH
gust
MPH
rain 1hr
in
rain 24hr
in
rain mn
in
humidity
%
barometer
mb
20260507060529 48 343 1.0 2.0 0.00 0.01 0.01 98 1004.7
20260507060025 48 344 1.0 2.0 0.00 0.01 0.01 98 1004.7
20260507055520 48 344 0.0 2.0 0.00 0.01 0.01 98 1004.6
20260507055016 47 347 2.0 2.0 0.00 0.01 0.01 98 1004.4
20260507054513 48 348 1.0 2.0 0.00 0.01 0.01 98 1004.5
20260507054010 48 348 1.0 2.0 0.00 0.01 0.01 98 1004.6
20260507053508 48 358 3.0 3.0 0.00 0.01 0.01 98 1004.3
20260507053006 48 351 2.0 3.0 0.00 0.01 0.01 98 1004.4
20260507052504 48 8 2.0 3.0 0.00 0.01 0.01 98 1004.4
20260507052000 48 348 2.0 3.0 0.00 0.01 0.01 98 1004.7
20260507051458 48 350 0.0 2.0 0.00 0.01 0.01 98 1004.1
20260507050954 48 348 0.0 0.0 0.00 0.01 0.01 98 1004.3
20260507050450 48 2 0.0 2.0 0.00 0.01 0.01 98 1004.4
20260507045948 48 43 2.0 5.0 0.00 0.01 0.01 98 1004.2
20260507045444 48 330 4.0 5.0 0.00 0.01 0.01 98 1004.4
20260507044942 48 314 4.0 5.0 0.00 0.01 0.01 98 1004.3
20260507044438 49 40 1.0 5.0 0.00 0.01 0.01 98 1004.3
20260507043934 49 20 1.0 3.0 0.00 0.01 0.01 98 1004.5
20260507043431 50 323 4.0 5.0 0.07 0.01 0.01 98 1004.3
20260507042927 50 5 2.0 3.0 0.07 0.01 0.01 98 1004.6
20260507042424 50 352 3.0 7.0 0.00 0.00 0.00 98 1004.2
20260507041919 50 329 7.0 12.0 0.00 0.00 0.00 98 1004.1
20260507041416 51 324 4.0 9.0 0.00 0.00 0.00 98 1004.5
20260507040914 52 71 1.0 5.0 0.05 0.00 0.00 98 1004.3
20260507040409 52 27 0.0 2.0 0.05 0.00 0.00 98 1004.5
20260507035905 52 22 0.0 2.0 0.07 0.50 0.50 98 1004.4
20260507035402 52 43 0.0 3.0 0.31 0.50 0.50 98 1004.3
20260507034859 53 334 3.0 7.0 0.19 0.48 0.48 98 1004.3
20260507034356 53 350 2.0 3.0 0.00 0.45 0.45 98 1004.2
20260507033854 53 345 5.0 7.0 0.00 0.45 0.45 98 1003.9
20260507033352 55 305 4.0 5.0 0.07 0.45 0.45 98 1003.7
20260507032848 55 309 2.0 5.0 0.07 0.45 0.45 98 1003.4
20260507032345 55 301 3.0 3.0 0.00 0.44 0.44 98 1003.5
20260507031841 55 319 3.0 3.0 0.00 0.44 0.44 98 1003.5
20260507031338 55 133 2.0 2.0 0.00 0.44 0.44 98 1003.3
20260507030834 55 134 0.0 2.0 0.00 0.44 0.44 98 1003.4
20260507030332 55 133 0.0 2.0 0.05 0.44 0.44 98 1003.4
20260507025829 54 131 1.0 2.0 0.00 0.43 0.43 98 1003.4
20260507025326 54 131 0.0 2.0 0.00 0.43 0.43 98 1003.4
20260507024824 54 106 0.0 0.0 0.00 0.43 0.43 98 1003.3
20260507024321 53 106 0.0 0.0 0.00 0.43 0.43 98 1003.3
20260507023817 53 106 0.0 0.0 0.00 0.43 0.43 98 1003.4
20260507023313 53 106 0.0 0.0 0.00 0.43 0.43 98 1003.5
20260507022811 53 106 0.0 0.0 0.00 0.43 0.43 98 1003.4
20260507022307 52 106 0.0 0.0 0.00 0.43 0.43 98 1003.4
20260507021803 53 106 0.0 2.0 0.00 0.43 0.43 98 1003.4
20260507021259 53 105 0.0 2.0 0.00 0.43 0.43 98 1003.4
20260507020757 53 105 0.0 2.0 0.00 0.43 0.43 98 1003.3
20260507020253 53 105 0.0 2.0 0.00 0.43 0.43 98 1003.4
20260507015751 53 105 0.0 2.0 0.00 0.43 0.43 98 1003.3
20260507015248 53 105 0.0 2.0 0.00 0.43 0.43 98 1003.3
20260507014745 53 105 2.0 2.0 0.00 0.43 0.43 98 1003.5
20260507014241 53 105 1.0 2.0 0.00 0.43 0.43 98 1003.7
20260507013738 53 106 1.0 2.0 0.00 0.43 0.43 98 1003.5
20260507013235 53 105 1.0 2.0 0.00 0.43 0.43 98 1003.7
20260507012732 53 105 1.0 2.0 0.00 0.43 0.43 98 1003.7
20260507012228 53 106 0.0 2.0 0.00 0.43 0.43 98 1003.7
20260507011726 53 106 0.0 2.0 0.00 0.43 0.43 98 1003.8
20260507011222 53 106 2.0 2.0 0.00 0.43 0.43 98 1003.8
20260507010721 53 106 2.0 2.0 0.00 0.43 0.43 98 1003.6
20260507010218 53 106 0.0 2.0 0.00 0.43 0.43 98 1003.6
20260507005716 53 106 1.0 3.0 0.00 0.43 0.43 98 1003.7
20260507005212 53 105 1.0 2.0 0.00 0.43 0.43 98 1003.8
20260507004708 53 105 0.0 2.0 0.00 0.43 0.43 98 1003.9
20260507004206 53 105 2.0 2.0 0.00 0.43 0.43 98 1003.9
20260507003702 53 105 2.0 3.0 0.00 0.43 0.43 98 1003.8
20260507003157 53 102 1.0 3.0 0.00 0.43 0.43 98 1003.7
20260507002654 53 101 2.0 3.0 0.00 0.43 0.43 98 1003.7
20260507002149 53 100 2.0 3.0 0.00 0.43 0.43 98 1003.4
20260507001647 53 100 1.0 3.0 0.00 0.43 0.43 98 1003.7
20260507001144 53 121 0.0 2.0 0.00 0.43 0.43 98 1003.9
20260507000640 53 117 1.0 2.0 0.00 0.43 0.43 98 1003.5
20260507000135 53 97 1.0 2.0 0.00 0.43 0.43 98 1003.6
20260506235633 53 96 2.0 3.0 0.00 0.43 0.43 98 1003.6
20260506235128 53 106 2.0 3.0 0.00 0.43 0.43 98 1003.5
20260506234625 53 109 3.0 5.0 0.00 0.43 0.43 98 1003.4
20260506234122 53 100 1.0 3.0 0.00 0.43 0.43 98 1003.3
20260506233619 53 100 3.0 3.0 0.00 0.43 0.43 98 1003.4
20260506233116 53 99 2.0 3.0 0.00 0.43 0.43 98 1003.6
20260506232612 53 104 2.0 3.0 0.00 0.43 0.43 98 1003.4
20260506232108 53 94 0.0 3.0 0.00 0.43 0.43 98 1003.5
20260506231605 53 99 3.0 5.0 0.00 0.43 0.43 98 1003.5
20260506231104 53 107 3.0 3.0 0.00 0.43 0.43 98 1003.4
20260506230600 52 106 3.0 3.0 0.00 0.43 0.43 98 1003.5
20260506230057 52 107 3.0 3.0 0.00 0.43 0.43 98 1003.6
20260506225554 52 111 3.0 3.0 0.00 0.43 0.43 98 1003.5
20260506225050 52 109 3.0 5.0 0.00 0.43 0.43 98 1003.5
20260506224547 53 102 3.0 3.0 0.00 0.43 0.43 98 1003.5
20260506224044 53 96 2.0 3.0 0.00 0.43 0.43 98 1003.8
20260506223539 53 109 2.0 3.0 0.00 0.43 0.43 98 1003.7
20260506223036 53 108 4.0 5.0 0.00 0.43 0.43 98 1003.6
20260506222533 53 104 2.0 3.0 0.00 0.43 0.43 98 1004.0
20260506222029 54 94 3.0 3.0 0.00 0.43 0.43 98 1004.1
20260506221527 54 96 3.0 3.0 0.00 0.43 0.43 98 1003.9
20260506221025 55 106 2.0 3.0 0.00 0.43 0.43 98 1004.0
20260506220520 55 91 0.0 2.0 0.00 0.43 0.43 98 1004.1
20260506220016 55 91 2.0 3.0 0.00 0.43 0.43 98 1004.1
20260506215513 55 97 2.0 2.0 0.07 0.43 0.43 98 1004.0
20260506215009 55 91 2.0 3.0 0.07 0.43 0.43 98 1004.4
20260506214506 55 92 1.0 2.0 0.00 0.42 0.42 98 1004.3
20260506214003 55 92 3.0 3.0 0.00 0.42 0.42 98 1004.2
20260506213501 54 106 3.0 3.0 0.05 0.42 0.42 98 1004.3
20260506212958 54 106 0.0 2.0 0.12 0.42 0.42 98 1004.5
20260506212454 54 101 1.0 2.0 0.12 0.41 0.41 98 1004.6
20260506211949 54 80 0.0 2.0 0.12 0.40 0.40 98 1004.6
20260506211445 54 84 2.0 3.0 0.19 0.39 0.39 98 1004.5
20260506210943 54 157 1.0 3.0 0.24 0.38 0.38 98 1004.7
20260506210439 55 166 2.0 3.0 0.35 0.36 0.36 98 1004.7
20260506205936 54 122 0.0 2.0 0.24 0.33 0.33 98 1004.9
20260506205432 54 123 2.0 3.0 0.07 0.30 0.30 98 1004.7
20260506204928 55 125 0.0 3.0 0.00 0.29 0.29 98 1004.9
20260506204427 55 116 2.0 3.0 0.05 0.29 0.29 98 1004.6
20260506203924 55 116 0.0 2.0 0.05 0.29 0.29 98 1004.8
20260506203421 55 116 2.0 3.0 0.07 0.28 0.28 98 1004.7
20260506202918 55 116 1.0 3.0 0.12 0.28 0.28 98 1004.7
20260506202415 54 116 2.0 2.0 0.12 0.27 0.27 98 1004.8
20260506201911 55 116 1.0 2.0 0.07 0.26 0.26 98 1004.7
20260506201409 55 116 0.0 2.0 0.05 0.25 0.25 98 1004.7
20260506200905 55 116 2.0 3.0 0.07 0.24 0.24 98 1004.6
20260506200401 54 117 3.0 3.0 0.19 0.24 0.24 98 1004.8
20260506195858 55 116 2.0 2.0 0.07 0.22 0.22 98 1005.2
20260506195355 55 116 2.0 3.0 0.07 0.21 0.21 98 1005.0
20260506194852 55 116 2.0 3.0 0.00 0.20 0.20 98 1005.0
20260506194349 56 117 2.0 3.0 0.05 0.20 0.20 98 1005.2
20260506193846 56 116 1.0 2.0 0.05 0.20 0.20 98 1005.2
20260506193343 56 116 1.0 2.0 0.00 0.19 0.19 98 1005.5
20260506192839 56 116 1.0 2.0 0.00 0.19 0.19 98 1005.3
20260506192336 57 116 2.0 2.0 0.07 0.19 0.19 98 1005.1
20260506191833 57 116 2.0 3.0 0.07 0.19 0.19 98 1005.1
20260506191329 57 116 1.0 2.0 0.05 0.18 0.18 98 1005.3
20260506190826 58 116 1.0 2.0 0.07 0.17 0.17 98 1005.3
20260506190322 58 116 1.0 2.0 0.12 0.17 0.17 98 1005.2
20260506185820 58 116 2.0 3.0 0.12 0.16 0.16 98 1005.4
20260506185317 58 116 2.0 2.0 0.07 0.15 0.15 98 1005.3
20260506184814 58 116 1.0 2.0 0.05 0.14 0.14 98 1005.5
20260506184311 58 117 0.0 2.0 0.12 0.14 0.14 98 1005.5
20260506183808 57 117 0.0 0.0 0.12 0.13 0.13 98 1005.7
20260506183303 57 117 0.0 2.0 0.12 0.12 0.12 98 1005.5
20260506182801 57 117 0.0 2.0 0.26 0.11 0.11 98 1005.5
20260506182257 57 229 1.0 5.0 0.24 0.09 0.09 97 1006.0
20260506181755 57 288 6.0 7.0 0.12 0.06 0.06 96 1006.1
20260506181253 56 113 1.0 2.0 0.05 0.05 0.05 96 1005.5
20260506180750 57 113 2.0 2.0 0.07 0.04 0.04 95 1005.4
20260506180245 57 207 2.0 3.0 0.12 0.04 0.04 95 1005.6
20260506175742 58 124 2.0 2.0 0.12 0.03 0.03 94 1005.2
20260506175239 59 108 0.0 0.0 0.12 0.02 0.02 93 1005.3
20260506174737 59 108 0.0 2.0 0.05 0.01 0.01 90 1005.4
20260506174233 60 108 0.0 3.0 0.00 0.00 0.00 89 1005.3
20260506173732 61 109 2.0 2.0 0.00 0.00 0.00 84 1005.4
20260506173228 62 99 2.0 3.0 0.00 0.00 0.00 83 1005.4
20260506172725 62 99 2.0 3.0 0.00 0.00 0.00 81 1005.5
20260506172221 62 145 2.0 2.0 0.00 0.00 0.00 84 1005.5
20260506171719 62 89 0.0 2.0 0.00 0.00 0.00 83 1005.6
20260506171216 61 115 0.0 2.0 0.00 0.00 0.00 84 1005.6
20260506170714 62 117 0.0 2.0 0.00 0.00 0.00 83 1005.8
20260506170210 61 116 2.0 3.0 0.00 0.00 0.00 83 1006.0
20260506165709 61 117 3.0 3.0 0.00 0.00 0.00 83 1006.0
20260506165205 61 119 1.0 3.0 0.00 0.00 0.00 85 1006.2
20260506164702 60 120 2.0 3.0 0.00 0.00 0.00 85 1006.2
20260506164159 60 121 1.0 2.0 0.00 0.00 0.00 85 1006.5
20260506163655 60 121 1.0 2.0 0.00 0.00 0.00 83 1006.7
20260506163151 61 96 0.0 2.0 0.00 0.00 0.00 82 1006.7
20260506162647 61 96 2.0 2.0 0.00 0.00 0.00 81 1007.0
20260506162145 61 154 1.0 2.0 0.00 0.00 0.00 80 1007.0
20260506161642 61 154 2.0 3.0 0.00 0.00 0.00 80 1007.1
20260506161139 61 104 2.0 2.0 0.00 0.00 0.00 81 1007.0
20260506160636 61 141 0.0 2.0 0.00 0.00 0.00 81 1007.2
20260506160133 62 131 0.0 2.0 0.00 0.00 0.00 80 1007.3
20260506155632 62 115 1.0 2.0 0.00 0.00 0.00 80 1007.3
20260506155128 62 101 2.0 2.0 0.00 0.00 0.00 79 1007.6
20260506153225 62 102 2.0 2.0 0.00 0.00 0.00 79 1007.6
20260506152721 63 197 2.0 3.0 0.00 0.00 0.00 78 1007.5
20260506152219 62 197 0.0 2.0 0.00 0.00 0.00 79 1007.7
20260506151718 62 197 2.0 2.0 0.00 0.00 0.00 79 1007.5
20260506151214 62 197 1.0 2.0 0.00 0.00 0.00 79 1007.7
20260506150710 62 197 1.0 2.0 0.00 0.00 0.00 79 1007.5
20260506150207 62 197 2.0 2.0 0.00 0.00 0.00 79 1007.6
20260506145704 62 197 2.0 2.0 0.00 0.00 0.00 78 1007.5
20260506145201 62 198 0.0 3.0 0.00 0.00 0.00 78 1007.5
20260506144659 62 198 0.0 0.0 0.00 0.00 0.00 79 1007.5
20260506144155 62 198 2.0 2.0 0.00 0.00 0.00 79 1007.3
20260506143653 61 198 0.0 0.0 0.00 0.00 0.00 81 1007.6
20260506143151 61 198 0.0 2.0 0.00 0.00 0.00 81 1007.3
20260506142649 60 198 0.0 2.0 0.00 0.00 0.00 81 1007.2
20260506142146 60 198 0.0 2.0 0.00 0.00 0.00 81 1007.3
20260506141644 60 197 2.0 3.0 0.00 0.00 0.00 82 1007.5
20260506141142 59 198 1.0 2.0 0.00 0.00 0.00 82 1007.5
20260506140639 60 198 0.0 2.0 0.00 0.00 0.00 81 1007.5
20260506140136 60 198 0.0 2.0 0.00 0.00 0.00 81 1007.7
20260506135633 60 198 0.0 2.0 0.00 0.00 0.00 81 1007.8
20260506135129 59 198 0.0 2.0 0.00 0.00 0.00 82 1007.7
20260506134626 59 198 0.0 2.0 0.00 0.00 0.00 83 1007.8
20260506134122 58 198 0.0 2.0 0.00 0.00 0.00 83 1007.9
20260506133620 57 198 0.0 2.0 0.00 0.00 0.00 84 1007.8
20260506133116 57 198 2.0 2.0 0.00 0.00 0.00 84 1007.9
20260506132614 57 198 0.0 2.0 0.00 0.00 0.00 84 1007.9
20260506132111 56 198 1.0 2.0 0.00 0.00 0.00 85 1008.3
20260506131608 56 198 2.0 2.0 0.00 0.00 0.00 85 1008.0
20260506131104 57 198 1.0 2.0 0.00 0.00 0.00 84 1008.0
20260506130601 57 198 0.0 2.0 0.00 0.00 0.00 83 1007.7
20260506130059 57 198 0.0 2.0 0.00 0.00 0.00 83 1007.8
20260506125557 57 198 2.0 2.0 0.00 0.00 0.00 83 1007.8
20260506125054 57 198 0.0 2.0 0.00 0.00 0.00 83 1007.9
20260506124552 57 198 0.0 2.0 0.00 0.00 0.00 83 1007.9
20260506124049 58 198 2.0 3.0 0.00 0.00 0.00 82 1007.9
20260506123547 57 198 2.0 2.0 0.00 0.00 0.00 82 1007.8
20260506123045 57 198 2.0 2.0 0.00 0.00 0.00 82 1007.9
20260506122541 57 198 0.0 2.0 0.00 0.00 0.00 83 1008.0
20260506122040 56 198 2.0 2.0 0.00 0.00 0.00 84 1008.1
20260506121537 57 198 1.0 2.0 0.00 0.00 0.00 83 1008.0
20260506121033 56 198 1.0 2.0 0.00 0.00 0.00 83 1007.9
20260506120531 56 198 0.0 0.0 0.00 0.00 0.00 84 1008.1
20260506120028 55 198 0.0 0.0 0.00 0.00 0.00 85 1008.2
20260506115526 54 199 0.0 2.0 0.00 0.00 0.00 86 1008.2
20260506115024 54 199 0.0 2.0 0.00 0.00 0.00 86 1008.3
20260506114521 54 199 0.0 2.0 0.00 0.00 0.00 86 1008.3
20260506114020 54 198 1.0 2.0 0.00 0.00 0.00 85 1008.3
20260506113517 54 198 0.0 2.0 0.00 0.00 0.00 86 1008.4
20260506113015 54 198 0.0 2.0 0.00 0.00 0.00 86 1008.6
20260506112511 54 198 1.0 2.0 0.00 0.00 0.00 86 1008.5
20260506112008 54 198 0.0 2.0 0.00 0.00 0.00 86 1008.4
20260506111507 55 198 0.0 2.0 0.00 0.00 0.00 86 1008.7
20260506111003 55 198 1.0 2.0 0.00 0.00 0.00 85 1008.4
20260506110501 55 198 1.0 2.0 0.00 0.00 0.00 85 1008.5
20260506105957 55 198 2.0 2.0 0.00 0.00 0.00 86 1008.7
20260506105454 55 199 0.0 0.0 0.00 0.00 0.00 87 1008.7
20260506104951 54 199 0.0 2.0 0.00 0.00 0.00 86 1008.5
20260506104449 54 199 0.0 2.0 0.00 0.00 0.00 88 1008.6
20260506103947 53 199 0.0 2.0 0.00 0.00 0.00 89 1008.5
20260506103444 53 199 0.0 0.0 0.00 0.00 0.00 90 1008.3
20260506102940 53 199 0.0 0.0 0.00 0.00 0.00 92 1008.2
20260506102439 53 199 0.0 0.0 0.00 0.00 0.00 92 1008.4
20260506101936 52 199 0.0 2.0 0.00 0.00 0.00 92 1008.5
20260506101432 52 199 0.0 0.0 0.00 0.00 0.00 93 1008.0
20260506100930 53 199 0.0 2.0 0.00 0.00 0.00 92 1008.0
20260506100428 53 199 0.0 0.0 0.00 0.00 0.00 90 1008.1
20260506095925 53 199 0.0 0.0 0.00 0.00 0.00 90 1008.1
20260506095424 53 199 0.0 2.0 0.00 0.00 0.00 89 1008.2
20260506094919 53 199 0.0 0.0 0.00 0.00 0.00 89 1007.9
20260506094418 53 199 0.0 2.0 0.00 0.00 0.00 89 1008.1
20260506093916 53 199 0.0 0.0 0.00 0.00 0.00 88 1008.2
20260506093413 54 199 0.0 2.0 0.00 0.00 0.00 88 1008.4
20260506092911 54 199 0.0 0.0 0.00 0.00 0.00 86 1008.1
20260506092409 54 199 0.0 2.0 0.00 0.00 0.00 85 1008.2
20260506091905 54 199 1.0 2.0 0.00 0.00 0.00 86 1008.1
20260506091403 53 199 1.0 2.0 0.00 0.00 0.00 87 1008.0
20260506090900 54 199 0.0 0.0 0.00 0.00 0.00 87 1007.9
20260506090358 55 199 0.0 0.0 0.00 0.00 0.00 86 1007.8
20260506085854 55 199 0.0 2.0 0.00 0.00 0.00 86 1007.8
20260506085351 55 199 0.0 0.0 0.00 0.00 0.00 86 1007.7
20260506084847 55 199 0.0 0.0 0.00 0.00 0.00 86 1007.8
20260506084344 55 199 0.0 0.0 0.00 0.00 0.00 86 1007.9
20260506083840 54 199 0.0 2.0 0.00 0.00 0.00 89 1007.7
20260506083338 55 199 0.0 0.0 0.00 0.00 0.00 89 1007.9
20260506082835 55 199 0.0 0.0 0.00 0.00 0.00 89 1007.8
20260506082332 55 199 0.0 2.0 0.00 0.00 0.00 88 1007.8
20260506081828 56 199 0.0 0.0 0.00 0.00 0.00 85 1007.8
20260506081326 57 199 0.0 2.0 0.00 0.00 0.00 83 1007.7
20260506080823 57 199 0.0 2.0 0.00 0.00 0.00 83 1007.6
20260506080320 57 199 0.0 2.0 0.00 0.00 0.00 83 1007.7
20260506073304 57 199 1.0 2.0 0.00 0.00 0.00 85 1007.5
20260506072801 57 199 0.0 2.0 0.00 0.00 0.00 84 1007.7
20260506072258 57 199 0.0 2.0 0.00 0.00 0.00 84 1007.6
20260506071755 57 199 0.0 0.0 0.00 0.00 0.00 85 1007.6
20260506071253 57 199 0.0 2.0 0.00 0.00 0.00 85 1007.4
20260506070744 58 199 0.0 2.0 0.00 0.00 0.00 83 1007.5
20260506070243 57 199 0.0 2.0 0.00 0.00 0.00 83 1007.5
20260506062218 59 198 2.0 3.0 0.00 0.00 0.00 82 1006.9
20260506061714 59 197 1.0 2.0 0.00 0.00 0.00 82 1007.0
20260506061212 59 197 0.0 2.0 0.00 0.00 0.00 82 1007.1
20260506060710 59 197 0.0 3.0 0.00 0.00 0.00 82 1007.0